TimeCST,TemperatureF,Dew PointF,Humidity,Sea Level PressureIn,VisibilityMPH,Wind Direction,Wind SpeedMPH,Gust SpeedMPH,PrecipitationIn,Events,Conditions,WindDirDegrees,DateUTC
12:53 AM,27.0,9.0,47,30.21,10.0,SSE,11.5,23.0,N/A,,Clear,160,2012-03-10 06:53:00
1:53 AM,27.0,9.0,47,30.15,10.0,South,12.7,19.6,N/A,,Clear,170,2012-03-10 07:53:00
2:53 AM,27.0,9.0,47,30.12,10.0,South,11.5,21.9,N/A,,Clear,170,2012-03-10 08:53:00
3:53 AM,28.0,10.0,47,30.08,10.0,South,11.5,19.6,N/A,,Clear,170,2012-03-10 09:53:00
4:53 AM,28.0,12.0,51,30.03,10.0,South,9.2,20.7,N/A,,Clear,180,2012-03-10 10:53:00
5:53 AM,28.0,12.9,53,29.99,10.0,South,9.2,-,N/A,,Clear,170,2012-03-10 11:53:00
6:53 AM,28.9,15.1,56,29.96,10.0,South,10.4,-,N/A,,Clear,170,2012-03-10 12:53:00
7:53 AM,34.0,19.0,54,29.94,10.0,South,11.5,17.3,N/A,,Clear,180,2012-03-10 13:53:00
8:53 AM,41.0,23.0,49,29.94,10.0,SSW,8.1,19.6,N/A,,Clear,200,2012-03-10 14:53:00
9:53 AM,43.0,24.1,47,29.93,10.0,SSW,9.2,20.7,N/A,,Clear,210,2012-03-10 15:53:00
10:53 AM,48.0,24.1,39,29.92,10.0,SW,8.1,18.4,N/A,,Clear,220,2012-03-10 16:53:00
11:53 AM,50.0,24.1,36,29.92,10.0,SSW,10.4,-,N/A,,Clear,200,2012-03-10 17:53:00
12:53 PM,52.0,24.1,34,29.91,10.0,Variable,6.9,-,N/A,,Clear,0,2012-03-10 18:53:00
1:53 PM,54.0,25.0,33,29.91,10.0,SSW,11.5,17.3,N/A,,Clear,200,2012-03-10 19:53:00
2:53 PM,55.0,25.0,31,29.91,10.0,South,5.8,-,N/A,,Clear,190,2012-03-10 20:53:00
3:53 PM,55.9,24.1,29,29.92,10.0,SSW,8.1,-,N/A,,Clear,210,2012-03-10 21:53:00
4:53 PM,55.9,25.0,30,29.92,10.0,WSW,8.1,-,N/A,,Clear,240,2012-03-10 22:53:00
5:53 PM,52.0,27.0,38,29.93,10.0,SSW,3.5,-,N/A,,Clear,200,2012-03-10 23:53:00
6:53 PM,39.9,28.0,63,29.95,10.0,Calm,Calm,-,N/A,,Clear,0,2012-03-11 00:53:00
7:53 PM,36.0,27.0,70,29.95,10.0,Calm,Calm,-,N/A,,Clear,0,2012-03-11 01:53:00
8:53 PM,35.1,27.0,72,29.95,10.0,Calm,Calm,-,N/A,,Clear,0,2012-03-11 02:53:00
9:53 PM,50.0,30.9,48,29.94,10.0,SSW,5.8,-,N/A,,Clear,200,2012-03-11 03:53:00
11:53 PM,48.9,28.9,46,29.94,10.0,SSW,4.6,-,N/A,,Clear,210,2012-03-11 05:53:00